Location: Potomac
(46.8816°N, 113.5795°W)
Time: 22:09:44
(UTC+00:00)

JY1SAT - Pass Details

Date: 02 July 2022
Orbit: 564 x 586 km, 97.6° (Epoch: 18 August)

Event Time Altitude Azimuth Distance (km) Brightness Sun altitude
Exits shadow 05:52:18 11° 213° (SSW) 1,859 ? -16.1°
Maximum altitude 05:55:31 24° 266° (W) 1,244 ? -16.3°
Drops below altitude 10° 05:58:54 10° 321° (NW) 1,922 ? -16.6°
Sets 06:01:25 0° 335° (NNW) 2,826 ? -16.7°
